EHI
12 14 17 17 16 18 19 19 18 15 14 13 10 7 7 7 5 7 19 37 48 49 48 43 34 26 20 14 7 3 3 4 4 2 0 0 0 1 0 0 0 0 0
10 12 13 13 12 13 16 15 13 11 10 10 10 7 5 4 5 8 17 32 41 42 44 43 38 31 24 16 10 5 3 5 6 4 2 0 0 1 0 0 0 0 0
8 8 8 8 8 7 9 10 8 6 5 6 7 6 4 5 6 8 14 23 28 30 35 40 41 40 33 22 14 10 8 8 9 8 5 2 1 1 0 0 0 0 0
5 4 4 4 4 3 3 5 5 4 2 2 4 4 5 7 6 5 8 13 18 21 26 31 35 39 35 25 19 20 19 16 13 11 9 6 3 1 0 0 0 0 0
2 1 1 2 2 1 1 1 3 3 2 2 2 2 3 5 4 2 3 7 12 18 20 20 22 25 23 20 22 29 32 27 20 16 12 9 6 3 1 0 0 0 0
0 0 0 0 0 0 0 0 1 1 1 1 1 0 1 2 1 0 0 2 8 13 14 15 16 15 12 12 19 29 36 37 32 25 18 14 11 6 2 0 0 0 0
0 0 0 0 0 0 0 0 0 0 1 1 0 0 0 0 0 0 0 1 3 6 8 13 17 17 13 10 11 20 31 39 40 36 29 23 17 9 3 0 0 0 0
0 0 0 0 0 0 0 0 0 0 0 0 0 0 0 0 0 0 1 2 1 2 4 9 15 18 16 12 8 11 20 31 38 40 38 33 23 12 3 0 0 0 0
0 0 0 0 0 0 0 0 0 0 0 0 0 0 0 0 0 0 0 1 0 0 1 3 7 11 11 10 9 6 8 16 25 32 37 37 28 15 5 1 0 0 0
0 0 0 0 0 0 0 0 0 0 0 0 0 0 0 0 0 0 0 0 0 0 0 0 1 2 3 5 5 2 1 4 10 18 27 31 28 18 8 2 0 0 0
0 0 0 0 0 0 0 0 0 0 0 0 0 0 0 0 0 0 0 0 0 0 0 0 0 0 0 1 1 0 0 0 2 7 14 19 21 16 9 3 1 0 0
0 0 0 0 0 0 0 0 0 0 0 0 0 0 0 0 0 0 0 0 0 0 0 0 0 0 0 0 0 0 0 0 0 1 4 8 10 10 7 5 3 1 0
0 0 0 0 0 0 0 0 0 0 0 0 0 0 0 0 0 0 0 0 0 0 0 0 0 0 1 1 0 0 0 0 0 0 0 2 3 4 4 4 3 2 1
0 0 0 0 0 0 0 0 0 0 0 0 0 0 0 0 0 0 0 0 0 0 0 0 0 1 2 2 1 0 0 0 0 0 0 0 1 1 2 2 3 3 1
0 0 0 0 0 0 0 0 0 0 0 0 0 0 0 0 0 0 0 0 0 0 0 0 0 1 2 1 0 0 0 0 0 0 0 0 0 0 0 1 1 1 1
0 0 0 0 0 0 0 0 0 0 0 0 0 0 0 0 0 0 0 0 0 0 0 0 0 0 0 0 0 0 0 0 0 0 0 0 0 0 0 0 0 0 0
0 0 0 0 0 0 0 0 0 0 0 0 0 0 0 0 0 0 0 0 0 0 0 0 0 0 0 0 0 0 0 0 0 0 0 0 0 0 0 0 0 0 0
0 0 0 0 0 0 0 0 0 0 0 0 0 0 0 0 0 0 0 0 0 0 0 0 0 0 0 0 0 0 0 0 0 0 0 0 0 0 0 0 0 0 0
0 0 0 0 0 0 0 0 0 0 0 0 0 0 0 0 0 0 0 0 0 0 0 0 0 0 0 0 0 0 0 0 0 0 0 0 0 0 0 0 0 0 0
0 0 0 0 0 0 0 0 0 0 0 0 0 0 0 0 0 0 0 0 0 0 0 0 0 0 0 0 0 0 0 0 0 0 0 0 0 0 0 0 0 0 0
0 0 0 0 0 0 0 0 0 0 0 0 0 0 0 0 0 0 0 0 0 0 0 0 0 0 0 0 0 0 0 0 0 0 0 0 0 0 0 0 0 0 0
0 0 0 0 0 0 0 0 0 0 0 0 0 0 0 0 0 0 0 0 0 0 0 0 0 0 0 0 0 0 0 0 0 0 0 0 0 0 0 0 0 0 0
0 0 0 0 0 0 0 0 0 0 0 0 0 0 0 0 0 0 0 0 0 0 0 0 0 0 0 0 0 0 0 0 0 0 0 0 0 0 0 0 0 0 0
0 0 0 0 0 0 0 0 0 0 0 0 0 0 0 0 0 0 0 0 0 0 0 0 0 0 0 0 0 0 0 0 0 0 0 0 0 0 0 0 0 0 0
0 0 0 0 0 0 0 0 0 0 0 0 0 0 0 0 0 0 0 0 0 0 0 0 0 0 0 0 0 0 0 0 0 0 0 0 0 0 0 0 0 0 0
0 0 0 0 0 0 0 0 0 0 0 0 0 0 0 0 0 0 0 0 0 0 0 0 0 0 0 0 0 0 0 0 0 0 0 0 0 0 0 0 0 0 0
Wind_Speed
2 2 1 2 2 1 1 1 2 2 3 4 5 6 6 6 5 5 3 13 14 15 16 16 17 17 16 16 16 15 15 15 13 13 12 12 12 12 12 11 11 10 9
3 3 3 1 2 1 1 1 2 2 3 3 4 5 6 5 5 6 4 8 14 15 16 17 17 17 18 18 17 17 16 16 15 14 14 13 13 13 13 12 12 11 10
4 4 4 2 2 2 2 2 2 2 3 4 4 5 5 5 5 6 5 4 6 13 16 17 17 17 18 19 19 19 18 17 16 16 16 15 14 14 14 13 13 12 11
3 3 4 3 3 3 2 2 2 2 2 2 3 4 4 4 6 6 6 6 5 7 12 18 18 18 19 20 21 20 20 19 18 18 17 17 16 16 15 15 14 13 13
4 4 4 2 3 3 3 4 3 3 3 4 4 5 4 4 5 7 7 8 7 6 6 12 19 18 20 22 21 20 20 20 20 20 20 19 19 17 17 16 15 15 14
4 4 4 4 4 3 3 3 4 3 3 4 6 5 4 5 5 6 7 7 6 8 8 8 8 13 20 20 20 20 20 21 21 22 21 21 21 19 18 18 17 16 16
3 3 3 4 4 3 4 4 4 5 4 3 3 4 5 7 6 5 5 4 4 5 5 6 5 5 7 18 20 20 21 22 22 22 22 22 22 20 20 19 18 18 17
3 4 4 4 4 4 4 3 3 3 5 4 3 4 5 5 3 3 3 3 3 2 3 5 5 6 5 5 11 20 21 22 23 23 23 23 22 21 21 21 20 19 19
2 2 3 3 4 5 4 4 4 4 4 4 4 2 3 3 5 4 3 1 2 2 2 2 4 4 6 5 5 13 21 22 23 24 24 23 22 21 21 22 21 21 20
2 1 2 2 3 4 5 5 4 4 5 4 4 3 2 2 2 4 4 3 2 2 3 3 3 3 5 4 6 9 15 20 23 23 23 23 23 22 23 23 23 22 21
3 3 2 1 2 4 4 4 4 4 4 4 4 4 4 3 4 4 5 5 4 3 2 3 3 3 3 4 4 7 10 14 18 21 21 22 23 24 24 24 25 24 24
2 2 1 1 2 3 3 4 4 5 4 4 4 4 4 4 4 3 4 4 4 4 3 2 2 2 2 3 4 5 7 10 12 15 18 19 21 22 24 25 26 25 25
2 2 2 1 3 3 4 4 4 5 5 5 4 4 4 4 4 4 4 4 5 5 5 3 2 3 2 1 1 3 5 8 11 12 14 16 18 19 21 23 24 25 25
3 2 2 2 3 4 5 4 4 5 5 4 6 5 4 4 4 4 4 4 5 5 5 5 2 2 2 2 1 3 4 6 9 11 13 14 16 17 19 20 22 22 22
4 3 3 4 4 4 4 4 4 5 5 5 5 5 4 4 4 4 4 3 4 5 6 6 3 1 2 3 4 3 3 5 8 10 12 14 15 16 18 19 20 21 20
4 4 5 5 5 5 5 5 5 5 5 5 5 6 5 4 4 4 4 4 4 5 6 5 5 3 2 2 5 4 4 6 8 11 12 14 15 16 17 19 20 20 20
4 5 5 5 5 5 5 5 6 6 6 6 6 6 6 6 4 4 4 4 4 4 6 6 5 4 4 4 3 3 4 5 5 11 13 14 15 15 16 18 19 19 20
4 5 5 5 6 6 5 5 6 6 6 6 6 6 6 6 6 5 5 5 5 5 5 7 6 5 6 5 5 5 5 5 5 8 11 13 13 14 15 16 18 18 19
5 5 5 5 6 6 6 6 6 6 6 6 6 7 6 6 6 5 5 5 5 7 5 5 6 5 5 5 5 5 6 4 5 6 9 11 12 13 14 15 16 17 18
5 5 5 6 6 6 7 7 6 6 6 6 6 7 7 7 7 7 6 6 6 6 6 6 6 5 5 6 4 5 5 4 4 4 4 5 9 12 14 14 15 16 18
6 5 5 5 6 7 7 4 4 6 5 6 6 7 8 9 9 8 8 6 5 5 5 5 6 5 5 4 4 4 5 4 3 3 3 4 4 5 8 11 14 15 16
5 5 6 6 7 8 1 1 3 5 6 7 7 7 8 9 11 14 15 13 10 8 7 6 6 6 6 5 4 4 4 4 3 2 3 3 3 4 4 5 10 13 15
5 5 5 6 7 7 6 6 7 5 7 7 8 7 9 11 8 6 8 12 14 16 15 9 9 9 8 7 6 6 5 5 4 2 2 3 3 3 2 3 9 12 14
4 5 6 6 7 8 8 8 9 7 8 9 9 9 9 9 10 7 7 7 7 9 11 11 11 11 10 8 6 6 6 6 5 4 4 3 2 2 1 1 4 9 12
5 6 7 7 7 7 7 9 9 6 7 9 10 10 9 8 8 8 6 7 7 7 11 14 15 14 15 14 9 5 5 5 6 4 3 3 2 1 1 0 1 4 9
6 7 7 6 7 7 7 10 11 6 7 7 7 7 10 9 7 7 6 6 8 7 7 9 8 10 11 12 13 9 7 7 6 5 4 3 2 2 2 1 1 2 3
Wind_Direction
12 358 339 321 311 317 330 339 285 283 277 271 265 257 249 252 260 263 205 184 189 191 191 193 197 201 201 199 199 198 197 196 192 189 188 187 182 179 178 177 173 170 167
23 353 316 321 306 304 360 284 276 267 263 257 260 266 261 255 252 262 252 198 199 201 199 200 202 205 207 206 203 203 201 200 196 193 192 190 187 185 185 183 181 177 175
13 346 312 314 350 328 304 276 279 264 256 255 252 260 260 254 247 248 255 236 210 209 209 208 207 207 209 210 209 207 205 203 199 196 195 193 191 189 189 187 185 183 181
12 337 325 352 354 323 308 292 268 293 309 314 301 281 267 252 247 238 236 234 227 221 215 215 213 210 211 214 214 212 208 205 202 200 198 196 195 193 191 190 189 187 186
4 351 332 342 333 320 320 324 7 1 330 321 293 263 254 251 248 249 234 228 222 221 217 214 214 214 216 219 218 216 212 208 205 203 202 201 199 197 194 193 192 190 190
21 5 309 7 350 322 338 352 337 311 286 273 282 297 286 263 248 244 243 234 217 218 221 220 210 219 221 222 221 219 216 212 208 206 205 204 203 200 197 195 194 194 193
16 313 326 349 321 331 345 326 330 315 300 277 283 290 278 260 239 228 229 238 232 225 225 214 207 212 216 223 225 223 220 217 212 209 207 206 205 202 199 198 197 196 196
359 329 26 333 347 338 306 308 309 305 309 319 320 311 306 296 326 261 221 214 228 236 243 235 213 214 220 210 219 225 225 222 218 213 210 207 206 203 200 200 199 199 198
343 336 333 336 341 319 329 339 319 319 313 315 308 302 312 335 338 319 323 275 214 231 238 244 230 225 226 223 217 222 226 224 222 219 214 209 206 203 201 201 201 201 201
269 286 312 327 331 315 315 317 5 339 319 310 312 305 282 310 307 319 321 317 277 243 234 248 252 233 229 228 227 227 228 227 223 223 219 214 208 205 203 203 204 204 204
235 221 205 275 315 296 314 332 325 318 312 308 316 319 310 288 249 259 293 310 308 286 243 221 224 230 233 231 235 236 231 229 225 224 222 218 213 208 206 205 207 208 207
253 184 172 97 303 304 328 320 310 299 293 302 305 304 305 300 295 287 286 294 297 299 295 261 223 225 226 230 244 257 236 231 228 225 224 222 219 213 210 208 210 211 211
325 70 41 355 298 302 293 282 287 285 288 289 287 279 289 297 298 296 293 295 299 299 292 269 226 213 211 187 211 269 255 237 230 226 226 226 223 218 214 212 212 212 212
312 341 297 273 271 274 283 294 293 282 277 279 278 279 280 279 283 287 286 291 294 293 289 282 245 195 162 157 180 230 255 246 237 229 226 226 225 220 216 213 212 212 212
303 323 326 302 285 276 271 275 272 278 281 276 276 279 269 275 277 273 279 277 275 285 287 296 296 228 180 186 181 217 236 242 242 234 227 224 224 221 217 213 210 208 208
293 296 286 285 283 279 270 262 267 268 270 267 263 267 272 269 277 286 281 277 269 269 279 288 292 283 260 239 196 224 238 245 244 240 232 227 224 220 217 213 211 208 206
284 280 276 276 275 273 267 259 258 263 263 262 266 267 262 261 263 273 278 275 271 267 272 279 280 284 274 270 244 237 246 235 238 237 233 228 223 220 217 213 211 209 207
281 284 283 283 283 283 281 273 268 271 270 271 269 268 269 269 261 256 262 268 269 268 267 274 278 281 273 260 248 238 248 251 241 235 230 226 222 218 216 214 212 210 209
281 283 285 285 285 286 281 273 266 265 265 268 271 271 270 270 270 264 264 267 273 275 273 273 276 274 274 266 260 252 246 243 248 240 226 223 221 217 214 212 211 211 210
278 275 275 279 281 282 278 273 270 266 264 265 266 267 266 264 263 262 264 257 261 269 275 274 271 267 265 262 253 250 253 235 237 243 238 228 220 216 215 210 211 211 210
277 280 284 282 281 278 277 294 294 287 292 291 283 275 269 266 261 257 261 261 269 271 275 279 277 276 269 270 267 261 258 252 234 222 230 227 215 212 212 215 213 212 210
269 273 274 280 281 283 313 291 281 298 295 288 283 280 279 270 257 245 243 246 248 254 262 269 276 278 284 290 298 300 291 278 268 230 220 236 217 219 213 207 207 207 208
274 272 273 275 276 277 264 247 244 265 277 276 276 276 278 279 289 275 254 246 246 246 243 248 261 268 277 287 304 304 301 296 279 266 241 255 228 226 216 211 200 201 203
271 274 272 273 271 273 259 239 235 248 267 268 266 264 263 265 271 272 274 266 256 251 242 237 241 249 256 261 270 280 284 287 274 250 210 234 228 210 213 197 197 200 201
268 270 271 267 267 267 249 232 222 253 264 269 266 266 262 260 257 248 251 260 265 265 264 254 237 238 241 247 249 264 271 275 278 262 217 208 202 185 174 184 177 195 197
266 269 268 267 270 272 256 229 210 243 265 272 274 270 267 261 250 230 239 255 264 269 278 287 274 258 250 247 237 232 242 253 262 263 218 191 186 172 176 180 167 171 179